When you browse on this site, cookies collect data to enhance your experience and personalize the content and advertising you see.
Visit our Privacy Policy to learn more. By continuing to use the site, you agree to this use of cookies and data.
  • en France
  • Liste des pays
  • À 7 jours
  • Température de l'eau
  • Carte satellitaire
  • Carte météo
  • Widgets météo
  • user-avatar
    Se connecter

    Météo par heure à Bunia

    Ce jour, 16 Juillet, Mardi

    Heure Température Précipitation Vent Pression Humidité
    00:00 +20°C° 0.8 mm 1 m/s 656 mmHg 88%
    01:00 +19°C° 0.8 mm 1 m/s 655 mmHg 90%
    02:00 +19°C° 0.8 mm 1 m/s 655 mmHg 92%
    03:00 +17°C° 0.1 mm 0 m/s 655 mmHg 91%
    04:00 +17°C° 0.1 mm 0 m/s 655 mmHg 90%
    05:00 +17°C° 0.1 mm 0 m/s 655 mmHg 89%
    06:00 +18°C° 0 mm 0 m/s 655 mmHg 87%
    07:00 +19°C° 0 mm 0 m/s 656 mmHg 85%
    08:00 +19°C° 0 mm 0 m/s 657 mmHg 83%
    09:00 +23°C° 0.1 mm 1 m/s 657 mmHg 77%
    10:00 +24°C° 0.1 mm 1 m/s 657 mmHg 70%
    11:00 +26°C° 0.1 mm 2 m/s 657 mmHg 64%
    12:00 +26°C° 0 mm 2 m/s 657 mmHg 59%
    13:00 +27°C° 0 mm 2 m/s 656 mmHg 55%
    14:00 +28°C° 0 mm 2 m/s 656 mmHg 50%
    15:00 +27°C° 0 mm 2 m/s 656 mmHg 55%
    16:00 +27°C° 0 mm 1 m/s 655 mmHg 60%
    17:00 +26°C° 0 mm 1 m/s 655 mmHg 65%
    18:00 +24°C° 0.1 mm 1 m/s 655 mmHg 71%
    19:00 +22°C° 0.1 mm 1 m/s 656 mmHg 77%
    20:00 +20°C° 0.1 mm 1 m/s 656 mmHg 83%
    21:00 +20°C° 0.2 mm 1 m/s 656 mmHg 85%
    22:00 +19°C° 0.2 mm 2 m/s 656 mmHg 86%
    23:00 +18°C° 0.2 mm 2 m/s 656 mmHg 88%

    Demain, 17 Juillet, Mercredi

    Heure Température Précipitation Vent Pression Humidité
    00:00 +18°C° 0.1 mm 2 m/s 655 mmHg 88%
    01:00 +19°C° 0.1 mm 1 m/s 655 mmHg 89%
    02:00 +19°C° 0.1 mm 1 m/s 655 mmHg 89%
    03:00 +19°C° 0 mm 1 m/s 655 mmHg 90%
    04:00 +19°C° 0 mm 1 m/s 655 mmHg 91%
    05:00 +18°C° 0 mm 1 m/s 655 mmHg 91%
    06:00 +20°C° 0 mm 1 m/s 655 mmHg 86%
    07:00 +21°C° 0 mm 1 m/s 656 mmHg 82%
    08:00 +23°C° 0 mm 1 m/s 657 mmHg 77%
    09:00 +24°C° 0.1 mm 1 m/s 657 mmHg 71%
    10:00 +25°C° 0.1 mm 2 m/s 657 mmHg 65%
    11:00 +27°C° 0.1 mm 3 m/s 657 mmHg 58%
    12:00 +27°C° 0 mm 3 m/s 657 mmHg 56%
    13:00 +28°C° 0 mm 3 m/s 656 mmHg 53%
    14:00 +28°C° 0 mm 3 m/s 656 mmHg 50%
    15:00 +27°C° 0 mm 2 m/s 656 mmHg 56%
    16:00 +27°C° 0 mm 2 m/s 655 mmHg 61%
    17:00 +26°C° 0 mm 2 m/s 655 mmHg 66%
    18:00 +24°C° 0 mm 1 m/s 655 mmHg 70%
    19:00 +22°C° 0 mm 1 m/s 655 mmHg 74%
    20:00 +21°C° 0 mm 1 m/s 655 mmHg 78%
    21:00 +20°C° 0 mm 2 m/s 655 mmHg 80%
    22:00 +19°C° 0 mm 2 m/s 655 mmHg 82%
    23:00 +19°C° 0 mm 2 m/s 656 mmHg 84%

    Après-demain, 18 Juillet, Jeudi

    Heure Température Précipitation Vent Pression Humidité
    00:00 +19°C° 0 mm 2 m/s 655 mmHg 85%
    01:00 +19°C° 0 mm 2 m/s 654 mmHg 85%
    02:00 +18°C° 0 mm 2 m/s 654 mmHg 86%
    03:00 +19°C° 0 mm 1 m/s 654 mmHg 85%
    04:00 +19°C° 0 mm 1 m/s 654 mmHg 84%
    05:00 +19°C° 0 mm 1 m/s 654 mmHg 84%
    06:00 +20°C° 0 mm 1 m/s 655 mmHg 81%
    07:00 +21°C° 0 mm 1 m/s 655 mmHg 78%
    08:00 +23°C° 0 mm 2 m/s 656 mmHg 74%
    09:00 +24°C° 0 mm 2 m/s 656 mmHg 68%
    10:00 +25°C° 0 mm 3 m/s 657 mmHg 62%
    11:00 +26°C° 0 mm 3 m/s 657 mmHg 56%
    12:00 +27°C° 0 mm 3 m/s 656 mmHg 54%
    13:00 +28°C° 0 mm 3 m/s 656 mmHg 52%
    14:00 +28°C° 0 mm 3 m/s 655 mmHg 50%
    15:00 +27°C° 0.1 mm 2 m/s 655 mmHg 57%
    16:00 +25°C° 0.1 mm 2 m/s 654 mmHg 65%
    17:00 +24°C° 0.1 mm 2 m/s 653 mmHg 73%
    18:00 +23°C° 0 mm 1 m/s 654 mmHg 74%
    19:00 +22°C° 0 mm 1 m/s 654 mmHg 75%
    20:00 +21°C° 0 mm 1 m/s 655 mmHg 77%
    21:00 +21°C° 0 mm 1 m/s 655 mmHg 79%
    22:00 +20°C° 0 mm 1 m/s 655 mmHg 80%
    23:00 +19°C° 0 mm 2 m/s 655 mmHg 82%

    19 Juillet, Vendredi

    Heure Température Précipitation Vent Pression Humidité
    00:00 +20°C° 0 mm 1 m/s 655 mmHg 83%
    01:00 +19°C° 0 mm 1 m/s 654 mmHg 84%
    02:00 +19°C° 0 mm 1 m/s 654 mmHg 85%
    03:00 +19°C° 0 mm 1 m/s 654 mmHg 85%
    04:00 +16°C° 0 mm 0 m/s 654 mmHg 84%
    05:00 +16°C° 0 mm 0 m/s 654 mmHg 83%
    06:00 +18°C° 0 mm 0 m/s 655 mmHg 78%
    07:00 +19°C° 0 mm 0 m/s 656 mmHg 74%
    08:00 +21°C° 0 mm 0 m/s 657 mmHg 70%
    09:00 +24°C° 0 mm 1 m/s 657 mmHg 65%
    10:00 +26°C° 0 mm 1 m/s 657 mmHg 60%
    11:00 +27°C° 0 mm 2 m/s 657 mmHg 56%
    12:00 +28°C° 0 mm 2 m/s 656 mmHg 53%
    13:00 +28°C° 0 mm 2 m/s 656 mmHg 51%
    14:00 +28°C° 0 mm 2 m/s 655 mmHg 48%
    15:00 +28°C° 0 mm 1 m/s 655 mmHg 53%
    16:00 +27°C° 0 mm 1 m/s 654 mmHg 57%
    17:00 +27°C° 0 mm 1 m/s 654 mmHg 62%
    18:00 +25°C° 0.1 mm 1 m/s 654 mmHg 67%
    19:00 +23°C° 0.1 mm 1 m/s 654 mmHg 72%
    20:00 +21°C° 0.1 mm 1 m/s 655 mmHg 77%
    21:00 +21°C° 0 mm 1 m/s 655 mmHg 77%
    22:00 +20°C° 0 mm 1 m/s 655 mmHg 77%
    23:00 +20°C° 0 mm 1 m/s 655 mmHg 77%

    20 Juillet, Samedi

    Heure Température Précipitation Vent Pression Humidité
    00:00 +18°C° 0.1 mm 0 m/s 655 mmHg 78%
    01:00 +18°C° 0.1 mm 0 m/s 655 mmHg 80%
    02:00 +17°C° 0.1 mm 0 m/s 654 mmHg 82%
    03:00 +17°C° 0 mm 0 m/s 654 mmHg 84%
    04:00 +17°C° 0 mm 0 m/s 655 mmHg 85%
    05:00 +16°C° 0 mm 0 m/s 655 mmHg 86%
    06:00 +18°C° 0.1 mm 0 m/s 656 mmHg 83%
    07:00 +19°C° 0.1 mm 0 m/s 656 mmHg 81%
    08:00 +21°C° 0.1 mm 0 m/s 657 mmHg 78%
    09:00 +24°C° 0.9 mm 1 m/s 657 mmHg 76%
    10:00 +24°C° 0.9 mm 1 m/s 657 mmHg 74%
    11:00 +25°C° 0.9 mm 1 m/s 657 mmHg 72%
    12:00 +26°C° 0.5 mm 1 m/s 656 mmHg 67%
    13:00 +27°C° 0.5 mm 1 m/s 656 mmHg 61%
    14:00 +26°C° 0.5 mm 0 m/s 655 mmHg 56%
    15:00 +26°C° 0.3 mm 0 m/s 655 mmHg 61%
    16:00 +27°C° 0.3 mm 1 m/s 655 mmHg 66%
    17:00 +26°C° 0.3 mm 1 m/s 654 mmHg 71%
    18:00 +24°C° 0.6 mm 1 m/s 655 mmHg 76%
    19:00 +22°C° 0.6 mm 1 m/s 655 mmHg 82%
    20:00 +20°C° 0.6 mm 1 m/s 655 mmHg 87%
    21:00 +20°C° 0.5 mm 1 m/s 655 mmHg 89%
    22:00 +19°C° 0.5 mm 1 m/s 655 mmHg 91%
    23:00 +19°C° 0.5 mm 1 m/s 655 mmHg 92%

    21 Juillet, Dimanche

    Heure Température Précipitation Vent Pression Humidité
    00:00 +18°C° 0.1 mm 1 m/s 655 mmHg 93%
    01:00 +18°C° 0.1 mm 1 m/s 655 mmHg 94%
    02:00 +18°C° 0.1 mm 1 m/s 654 mmHg 95%
    03:00 +18°C° 0.1 mm 1 m/s 654 mmHg 94%
    04:00 +18°C° 0.1 mm 1 m/s 654 mmHg 94%
    05:00 +18°C° 0.1 mm 1 m/s 655 mmHg 94%
    06:00 +19°C° 0 mm 1 m/s 655 mmHg 91%
    07:00 +20°C° 0 mm 1 m/s 656 mmHg 88%
    08:00 +21°C° 0 mm 1 m/s 657 mmHg 86%
    09:00 +23°C° 0.5 mm 1 m/s 657 mmHg 81%
    10:00 +24°C° 0.5 mm 1 m/s 657 mmHg 76%
    11:00 +25°C° 0.5 mm 2 m/s 657 mmHg 72%
    12:00 +25°C° 1.3 mm 2 m/s 656 mmHg 74%
    13:00 +25°C° 1.3 mm 2 m/s 656 mmHg 75%
    14:00 +25°C° 1.3 mm 1 m/s 655 mmHg 77%
    15:00 +25°C° 1.1 mm 1 m/s 655 mmHg 80%
    16:00 +24°C° 1.1 mm 1 m/s 654 mmHg 82%
    17:00 +24°C° 1.1 mm 1 m/s 654 mmHg 85%
    18:00 +22°C° 0.6 mm 1 m/s 654 mmHg 87%
    19:00 +21°C° 0.6 mm 1 m/s 655 mmHg 88%
    20:00 +20°C° 0.6 mm 1 m/s 655 mmHg 90%
    21:00 +19°C° 0.9 mm 1 m/s 655 mmHg 91%
    22:00 +19°C° 0.9 mm 1 m/s 655 mmHg 91%
    23:00 +17°C° 0.9 mm 0 m/s 655 mmHg 92%
    Voir plus